THORAD DELTA 1 DEB, 8183

Orbit data source: Space-Track

THORAD DELTA 1 DEB, 8183 is space debris in SSO originally from a launch on Fri, 15 Nov 1974 UTC launched from the Air Force Western Test Range (AFWTR). Debris objects in space refer to the collection of defunct objects orbiting the Earth. Examples of debris include non-operational satellites, rocket bodies, and fragments generated from explosions, collisions, or faulty payload assembly.

Loading next visibility...
Identifier
8183, 1974-089AZ
Orbit
SSO
Country
Flag of USUS
Related business
Manufacturer
Unknown
Mission
Spacecraft
Bus & Motor
Unknown
Mass
Unknown
Launch date (UTC)
1974-11-15 (51 years ago)
Launch vehicle
Unknown
Launch site
Air Force Western Test Range (AFWTR)
Object type
Payload
Rocket body
Debris
Shape & HBR
Unknown shape, 0.1 m
Radar Cross Section
Medium (>0.1 m² and <1 m²)

Expand to show TLE details & history
Last TLE update: 20 hours ago

TLE from 20 hours ago
0 THORAD DELTA 1 DEB
1 08183U 74089AZ  25350.14796859 -.00000003  00000-0  26749-3 0  9997
2 08183 100.7744 190.9108 0105996 125.7951 354.8575 12.32959011298215
Epoch: 2025-12-16T03:33Z
TLE epoch observation values (Epoch: 2025-12-16T03:33:04.486Z)
Latitude
57.8793°
Longitude
-109.83906°
Altitude
1,462.613 km
Speed
7.174 km/s
True Right ascension
01h 53m 51s
True Declination
57° 44' 17"
Sunlit
Object was in full shadow at epoch
Visualization orbit readout
Latitude
Unknown
Longitude
Unknown
Altitude
Unknown
Speed
Unknown
Apparent Right ascension
Unknown
Apparent Declination
Unknown
Sunlit
N/A
Visualization observer readout
Local Sidereal Time
22:27:48
Azimuth
Unknown
Elevation
Unknown
Doppler factor
Unknown
Orbital elements
Apogee altitude
1,617.974 km
Perigee altitude
1,450.24 km
Semi-major axis
7,912.244 km
Eccentricity
0.0106
Inclination
100.7744°
RAAN
190.9108°
Arg. of periapsis
125.7951°
True anomaly
354.74717°
Mean anomaly
354.8575°
Eccentric anomaly
354.80248°
Mean motion
3.08385 °/min
Orbital period
116.74 mins
BSTAR
0.00026749
Loading maneuver chart data...
Computing Atmospheric mass density...

Documentation

Showing up to 5 results
|